Regional Weather Roundup
Issued by NWS Grand Forks, ND

Home | Current Version | Previous Version | Text Only | Print | Product List | Glossary Off
Versions: 1 2 3 4 5 6 7 8 9 10 11 12 13 14 15 16 17 18 19 20 21 22 23 24 25 26 27 28 29 30 31 32 33 34 35 36 37 38 39 40 41 42 43 44 45 46 47 48 49 50

000
ASUS43 KFGF 280010
RWRFGF
PRAIRIE TO PINES  WEATHER ROUNDUP
NATIONAL WEATHER SERVICE EASTERN NORTH DAKOTA/GRAND FORKS ND
700 PM CDT MON MAR 27 2017

 **SATELLITE DATA USED TO AUGMENT SKY COVER AT AUTOMATED STATIONS**
 *****  WEATHER ACROSS EASTERN NORTH DAKOTA  *****

CITY           SKY/WX    TMP DP  RH WIND       PRES   REMARKS
GRAND FORKS    MOCLDY    41  39  93 NE10      29.99F
6HR MIN TEMP:  39; 6HR MAX TEMP:  46;

GRAND FRKS AFB CLOUDY    41  39  93 NE13      29.99F
DEVILS LAKE    MOCLDY    47  42  83 E12       29.97R
6HR MIN TEMP:  45; 6HR MAX TEMP:  54;

FARGO          FAIR      55  44  66 NE7       29.96R
WAHPETON ARPT  FAIR      55  36  47 CALM      29.97R
$$

 ***** WEATHER ACROSS CENTRAL AND WESTERN NORTH DAKOTA  *****

CITY           SKY/WX    TMP DP  RH WIND       PRES   REMARKS
BISMARCK       FAIR      62  27  26 SE8       29.91R
6HR MIN TEMP:  60; 6HR MAX TEMP:  65;

MINOT          CLOUDY    37  35  92 N14       29.97F FOG
6HR MIN TEMP:  37; 6HR MAX TEMP:  48;

JAMESTOWN      FAIR      55  38  52 E7        29.94R
6HR MIN TEMP:  54; 6HR MAX TEMP:  59;

MINOT AFB      NOT AVBL
GARRISON         N/A     46  39  76 NE12      29.93R
WILLISTON      CLOUDY    54  34  46 E12       29.91R
6HR MIN TEMP:  54; 6HR MAX TEMP:  60;

DICKINSON      PTSUNNY   58  25  28 E10       29.85R
6HR MIN TEMP:  55; 6HR MAX TEMP:  61;

HETTINGER      FAIR      59  29  31 SE10      29.88S
6HR MIN TEMP:  56; 6HR MAX TEMP:  61;

$$

 *****  OTHER AIRPORT OBSERVATIONS IN OUR AREA  *****

CITY           SKY/WX    TMP DP  RH WIND       PRES   REMARKS
WALHALLA       NOT AVBL
GRAFTON AIRPOR CLOUDY    37  37 100 N9        30.04S FOG
VALLEY CITY AR FAIR      52  41  66 E9        29.97S
CANDO          NOT AVBL
CAVALIER APRT  CLOUDY    36  36 100 CALM      30.03S FOG
GWINNER        CLEAR     57  37  47 MISG      29.95S
SHEYENNE NWR     N/A     57  37  46 SE5       29.95S
ROLLA          CLOUDY    34  34 100 NE13      30.01R FOG     WCI  25
 ***** THE ABOVE OBSERVATIONS ARE NON NWS ARE NOT QUALITY
       CONTROLLED AND MAY MIS-REPORT RAIN FOR SNOW...
$$

  *****  WEATHER ACROSS NORTHERN MINNESOTA  *****

CITY           SKY/WX    TMP DP  RH WIND       PRES   REMARKS
FLAG ISLAND    CLOUDY    43  30  61 CALM      30.01R
WARROAD        FAIR      41  36  81 CALM      30.02R
ROSEAU         MOCLDY    46  39  76 W7        30.01R
HALLOCK        MOCLDY    43  39  87 N3        30.02S
THF RVR FALLS  FAIR     N/A N/A N/A NW9       30.01S
BAUDETTE       FAIR      45  32  60 N7        29.99R
6HR MIN TEMP:  45; 6HR MAX TEMP:  55;

WASKISH        FAIR      45  34  65 W7        29.98S
CROOKSTON      MOCLDY    43  41  93 NE6       30.01S FOG
GREENBUSH NDAW   N/A     45  39  81 NW3         N/A
$$
  *****  WEATHER ACROSS CENTRAL AND WEST MINNESOTA  *****

CITY           SKY/WX    TMP DP  RH WIND       PRES   REMARKS
FOSSTON        FAIR      50  43  76 NW9       29.99R
BEMIDJI        FAIR      55  25  31 CALM      29.97R
PARK RAPIDS    FAIR      57  29  34 N3        29.95R
6HR MIN TEMP:  51; 6HR MAX TEMP:  60;

ELBOW LAKE     FAIR      54  34  47 SE3       29.96S
6HR MIN TEMP:  50; 6HR MAX TEMP:  56;

WADENA         FAIR      55  36  47 CALM      29.95S
DETROIT LAKES  FAIR      54  39  58 N7        29.97R
MOORHEAD       FAIR      54  45  71 N7        29.97S
FERGUS FALLS   FAIR      55  39  54 W6        29.98S
MORRIS MN      FAIR      57  34  41 SE3       29.95S
STAPLES        FAIR      55  34  44 CALM      29.95S
$$
  *****  WEATHER ELSEWHERE ACROSS MINNESOTA  *****

CITY           SKY/WX    TMP DP  RH WIND       PRES   REMARKS
DULUTH         FAIR      44  34  67 SE7       29.98R
6HR MIN TEMP:  44; 6HR MAX TEMP:  51;

INTRNTL FALLS  FAIR      52  22  30 CALM      29.98R
6HR MIN TEMP:  50; 6HR MAX TEMP:  54;

ELY            FAIR      52  19  28 CALM      29.97R
CLOQUET        FAIR      48  32  53 E7        29.98R
WHEATON        FAIR      57  34  41 NE5       29.98R
BRAINERD       FAIR      55  31  39 CALM      29.96S
6HR MIN TEMP:  49; 6HR MAX TEMP:  57;

HIBBING        FAIR      53  25  33 CALM      29.96S
6HR MIN TEMP:  47; 6HR MAX TEMP:  54;

ALEXANDRIA     FAIR      55  34  45 CALM      29.96R
6HR MIN TEMP:  49; 6HR MAX TEMP:  58;

SAINT CLOUD    FAIR      55  36  48 NE5       29.96R
6HR MIN TEMP:  49; 6HR MAX TEMP:  57;

MINNEAPOLIS    FAIR      53  37  54 SE6       29.96R
6HR MIN TEMP:  53; 6HR MAX TEMP:  61;

$$

  *****  WEATHER ACROSS SOUTH DAKOTA  *****

CITY           SKY/WX    TMP DP  RH WIND       PRES   REMARKS
SIOUX FALLS    MOCLDY    55  40  56 SE9       29.94R
6HR MIN TEMP:  54; 6HR MAX TEMP:  60;

BROOKINGS      FAIR      54  35  48 E7        29.94
WATERTOWN      CLOUDY    53  34  48 E7        29.94R
6HR MIN TEMP:  50; 6HR MAX TEMP:  58;

HURON          CLOUDY    58  35  42 E6        29.92R
6HR MIN TEMP:  54; 6HR MAX TEMP:  61;

SISSETON         N/A     56  39  53 SE5       29.95R
ABERDEEN       CLOUDY    56  35  45 SE8       29.94R
6HR MIN TEMP:  55; 6HR MAX TEMP:  61;

MITCHELL       FAIR      60  34  37 S5        29.92S
PIERRE         FAIR      59  29  31 E10       29.87F
6HR MIN TEMP:  54; 6HR MAX TEMP:  61;

MOBRIDGE       FAIR      58  35  42 SE10      29.88S
RAPID CITY     FAIR      58  35  42 E5        29.84R
6HR MIN TEMP:  45; 6HR MAX TEMP:  61;

$$

  *****  SOME WEATHER IN NEARBY STATES *****

CITY           SKY/WX    TMP DP  RH WIND       PRES   REMARKS
GLASGOW MT     FAIR      57  33  40 E10       29.86R
6HR MIN TEMP:  48; 6HR MAX TEMP:  58; 6HR PCP:  0.01;

GREAT FALLS MT LGT RAIN  50  31  48 W18       29.89R
6HR MIN TEMP:  50; 6HR MAX TEMP:  56; 6HR PCP: TRACE;

CHEYENNE WY    CLOUDY    54  22  28 S9        29.81S
6HR MIN TEMP:  51; 6HR MAX TEMP:  57;

SCOTTSBLUFF NE CLOUDY    62  31  31 SE6       29.78S
6HR MIN TEMP:  62; 6HR MAX TEMP:  67; 6HR PCP: TRACE;

OMAHA NE       CLOUDY    51  40  65 CALM      29.96S
6HR MIN TEMP:  50; 6HR MAX TEMP:  52;

DES MOINES IA  CLOUDY    51  42  71 N7        29.95R
6HR MIN TEMP:  48; 6HR MAX TEMP:  52;

DAVENPORT IA   CLOUDY    50  46  86 N8        29.92R
6HR MIN TEMP:  49; 6HR MAX TEMP:  52; 6HR PCP: TRACE;

CHICAGO IL     CLOUDY    45  39  79 NE8       29.93R
6HR MIN TEMP:  45; 6HR MAX TEMP:  50; 6HR PCP: TRACE;

EAU CLAIRE WI  CLOUDY    46  37  71 E3        29.96S
6HR MIN TEMP:  42; 6HR MAX TEMP:  47;

LA CROSSE WI   CLOUDY    47  41  80 NW7       29.96R
6HR MIN TEMP:  45; 6HR MAX TEMP:  50;

$$

  *****  SOME NATIONAL WEATHER *****

CITY           SKY/WX    TMP DP  RH WIND       PRES   REMARKS
LA GUARDIA NY  MOCLDY    49  43  80 NE8       29.99S
6HR MIN TEMP:  46; 6HR MAX TEMP:  50; 6HR PCP: TRACE;

RALEIGH NC     MOCLDY    73  57  57 S6        29.96F
6HR MIN TEMP:  73; 6HR MAX TEMP:  79;

ATLANTA GA     MOCLDY    75  54  47 S9        29.93F
6HR MIN TEMP:  73; 6HR MAX TEMP:  78; 6HR PCP: TRACE;

NEW ORLEANS LA MOCLDY    76  66  71 S13       29.93R
6HR MIN TEMP:  76; 6HR MAX TEMP:  82;

OKLAHOMA CITY  FAIR      68  45  43 N6        29.88S
6HR MIN TEMP:  58; 6HR MAX TEMP:  69;

ALBUQUERQUE NM PTSUNNY   67  20  16 W9        29.80F
6HR MIN TEMP:  60; 6HR MAX TEMP:  69;

SALT LAKE CITY LGT RAIN  44  41  89 N13       29.88R
6HR MIN TEMP:  42; 6HR MAX TEMP:  44; 6HR PCP:  0.23;

LOS ANGELES CA FAIR      65  52  62 W23G30    29.95F
6HR MIN TEMP:  65; 6HR MAX TEMP:  68;

BOISE ID       PTSUNNY   52  32  46 NW22G32   30.06R
6HR MIN TEMP:  47; 6HR M



USA.gov is the U.S. government's official web portal to all federal, state and local government web resources and services.